TimeCDT,TemperatureF,Dew PointF,Humidity,Sea Level PressureIn,VisibilityMPH,Wind Direction,Wind SpeedMPH,Gust SpeedMPH,PrecipitationIn,Events,Conditions,WindDirDegrees,DateUTC
12:54 AM,77.0,73.9,90,30.10,8.0,Calm,Calm,-,N/A,,Clear,0,2013-06-12 05:54:00
1:54 AM,75.9,73.0,91,30.10,7.0,Calm,Calm,-,N/A,,Clear,0,2013-06-12 06:54:00
2:54 AM,75.9,73.0,91,30.10,6.0,Calm,Calm,-,N/A,,Clear,0,2013-06-12 07:54:00
3:54 AM,75.0,73.0,94,30.11,4.0,Calm,Calm,-,N/A,,Clear,0,2013-06-12 08:54:00
4:19 AM,75.2,73.4,94,30.04,4.0,Calm,Calm,-,N/A,,Mostly Cloudy,0,2013-06-12 09:19:00
4:54 AM,75.0,72.0,90,30.12,3.0,Calm,Calm,-,N/A,,Mostly Cloudy,0,2013-06-12 09:54:00
5:10 AM,73.4,71.6,94,30.04,1.8,Calm,Calm,-,N/A,,Scattered Clouds,0,2013-06-12 10:10:00
5:54 AM,73.9,72.0,93,30.12,2.5,Calm,Calm,-,N/A,,Partly Cloudy,0,2013-06-12 10:54:00
6:04 AM,73.4,71.6,94,30.05,4.0,Calm,Calm,-,N/A,,Partly Cloudy,0,2013-06-12 11:04:00
6:10 AM,73.4,71.6,94,30.05,1.8,Calm,Calm,-,N/A,,Partly Cloudy,0,2013-06-12 11:10:00
6:23 AM,73.4,71.6,94,30.05,1.0,Calm,Calm,-,N/A,,Mist,0,2013-06-12 11:23:00
6:36 AM,73.4,71.6,94,30.05,1.8,Calm,Calm,-,N/A,,Overcast,0,2013-06-12 11:36:00
6:43 AM,73.4,71.6,94,30.05,2.5,Calm,Calm,-,N/A,,Overcast,0,2013-06-12 11:43:00
6:54 AM,75.0,72.0,90,30.13,2.5,Calm,Calm,-,N/A,,Overcast,0,2013-06-12 11:54:00
7:13 AM,75.2,73.4,94,30.05,3.0,Calm,Calm,-,N/A,,Overcast,0,2013-06-12 12:13:00
7:45 AM,78.8,75.2,89,30.05,7.0,Calm,Calm,-,N/A,,Partly Cloudy,0,2013-06-12 12:45:00
7:54 AM,79.0,75.0,88,30.13,9.0,Calm,Calm,-,N/A,,Clear,0,2013-06-12 12:54:00
8:54 AM,82.9,73.9,74,30.14,10.0,Variable,3.5,-,N/A,,Partly Cloudy,0,2013-06-12 13:54:00
9:26 AM,84.2,73.4,70,30.07,10.0,Variable,4.6,-,N/A,,Mostly Cloudy,0,2013-06-12 14:26:00
9:54 AM,86.0,73.0,65,30.14,10.0,Variable,4.6,-,N/A,,Mostly Cloudy,0,2013-06-12 14:54:00
10:10 AM,84.2,73.4,70,30.07,10.0,Variable,3.5,-,N/A,,Scattered Clouds,0,2013-06-12 15:10:00
10:54 AM,87.1,72.0,61,30.15,10.0,Calm,Calm,-,N/A,,Partly Cloudy,0,2013-06-12 15:54:00
11:54 AM,91.0,72.0,53,30.14,10.0,Variable,3.5,-,N/A,,Scattered Clouds,0,2013-06-12 16:54:00
12:54 PM,90.0,69.1,50,30.14,10.0,Variable,3.5,-,N/A,,Mostly Cloudy,0,2013-06-12 17:54:00
1:54 PM,93.0,71.1,49,30.12,10.0,Variable,3.5,-,N/A,,Scattered Clouds,0,2013-06-12 18:54:00
2:54 PM,93.0,70.0,47,30.10,10.0,Calm,Calm,-,N/A,,Scattered Clouds,0,2013-06-12 19:54:00
3:54 PM,93.9,69.1,44,30.08,10.0,Variable,3.5,-,N/A,,Scattered Clouds,0,2013-06-12 20:54:00
4:54 PM,93.9,68.0,43,30.06,10.0,Variable,3.5,-,N/A,,Clear,0,2013-06-12 21:54:00
5:54 PM,93.0,68.0,44,30.04,10.0,Calm,Calm,-,N/A,,Scattered Clouds,0,2013-06-12 22:54:00
6:54 PM,91.0,70.0,50,30.04,10.0,Calm,Calm,-,N/A,,Clear,0,2013-06-12 23:54:00
7:54 PM,86.0,72.0,63,30.05,10.0,Calm,Calm,-,N/A,,Clear,0,2013-06-13 00:54:00
8:54 PM,82.0,73.0,74,30.05,10.0,Calm,Calm,-,N/A,,Clear,0,2013-06-13 01:54:00
9:54 PM,82.0,73.0,74,30.07,10.0,Calm,Calm,-,N/A,,Clear,0,2013-06-13 02:54:00
10:54 PM,81.0,73.9,79,30.09,10.0,Calm,Calm,-,N/A,,Clear,0,2013-06-13 03:54:00
11:54 PM,80.1,73.9,81,30.09,10.0,Calm,Calm,-,N/A,,Clear,0,2013-06-13 04:54:00